Torna al catalogo

STARLINK-36782

AttivoComunicazioniSSO
NORAD 67805·PAYLOAD·🇺🇸 United States

Lanciato Feb 15, 2026 da Vandenberg Space Force Base

Loading…

Prossimi Passaggi (prossime 24 ore)

TLE

AggiornatoSource: CelesTrak SupGP

Epoca: Sep 15, 2026, 02:56 UTC

1 67805C 26032J   26258.12270833 -.00042648  00000+0 -13239-2 0  2581
2 67805  97.2859  84.6335 0001747  92.2807 243.2040 15.33461132    19

Traccia STARLINK-36782 in tempo reale con AllMySat

Download on the App Store